RH
86 84 86 84 81 77 76 78 83 85 83 84 85 86 88 87 87 86 85 83 80 77 77 77 74 72 71 78 84 88 89 90 89 88 86 88 89 89 88 87 87 88 89 87 88 91 95 97 99 99 99 91 84 79 75 72 69 67 64 63 62 61 60 60 59 58 60 61 66 73 79 82 84 84 84 83 82 81 79 79 79 78 76 77 77 76 75 74 74 74 76 77 78 78 78 79 80 81 81 81 81 80 78
86 83 80 78 76 75 78 79 81 82 81 81 83 85 89 87 87 86 85 85 86 87 87 86 85 82 77 80 84 87 89 90 89 87 86 87 88 89 89 90 89 89 89 88 88 90 93 97 98 96 91 83 78 74 71 69 68 67 66 65 65 65 65 66 65 66 71 66 68 73 78 81 83 84 84 84 83 82 80 82 83 83 83 82 82 80 78 77 77 78 79 79 78 78 77 76 76 77 78 79 80 80 80
89 86 84 81 80 79 80 82 81 82 85 81 81 83 86 86 87 87 89 88 90 91 91 86 86 88 85 87 88 88 89 89 88 87 87 87 87 87 88 89 90 90 91 91 89 89 91 93 90 84 76 73 70 68 66 66 67 67 68 68 69 70 71 71 71 73 80 77 77 79 80 81 82 83 84 84 83 83 84 85 85 85 86 85 84 83 83 81 80 80 82 81 80 79 77 76 75 75 75 76 76 78 80
89 89 90 86 84 82 82 84 84 83 83 83 82 82 83 82 85 88 88 88 89 90 90 86 85 87 88 88 86 85 84 85 85 87 88 88 87 85 85 86 88 90 91 92 89 85 82 78 73 69 65 64 63 63 64 66 68 69 70 71 72 74 75 75 76 79 88 91 86 81 83 83 83 83 84 84 84 84 85 85 86 86 87 86 86 86 87 85 83 81 80 79 77 76 75 75 75 74 74 73 74 75 77
92 92 90 88 86 84 85 83 82 81 82 83 83 83 83 84 85 87 87 86 86 85 85 85 85 86 89 88 85 83 83 85 86 87 86 87 88 88 88 85 87 89 91 89 85 81 76 71 67 64 62 62 63 65 67 69 71 72 73 74 75 76 76 77 79 86 97 96 94 90 86 83 80 80 81 81 82 84 83 83 84 84 85 85 85 85 86 87 86 84 81 79 78 77 77 79 79 78 77 76 76 77 77
92 92 90 89 86 82 81 84 83 81 81 80 83 85 81 82 85 88 89 85 85 85 86 86 85 83 86 87 87 87 86 87 88 88 87 87 88 88 88 88 89 89 87 84 81 78 76 72 68 67 67 68 69 70 72 73 74 75 75 75 76 76 76 76 82 90 99 97 95 92 87 84 84 85 84 82 79 77 78 79 79 81 82 83 83 84 85 86 86 85 85 84 83 83 84 84 84 84 84 81 79 78 78
86 86 86 84 84 83 81 81 84 86 86 82 81 82 84 85 87 88 87 89 89 89 87 86 85 84 85 85 86 86 86 86 87 87 88 89 88 87 87 86 86 85 83 81 80 79 78 74 73 72 72 73 74 74 75 75 75 75 75 75 75 75 75 76 82 90 98 97 95 92 88 87 85 84 87 87 85 83 81 80 79 77 77 78 78 79 80 82 83 84 86 87 88 88 89 88 89 89 89 86 83 80 80
77 75 73 75 79 81 81 85 87 88 88 86 86 87 90 88 88 88 87 87 86 85 85 85 86 86 84 83 84 85 83 87 88 88 90 90 88 87 86 85 84 82 81 80 80 79 78 76 75 75 75 75 75 75 75 75 75 75 75 75 75 75 74 75 81 90 99 96 94 92 90 91 91 89 86 85 84 82 84 79 77 78 78 77 77 77 78 81 83 85 87 88 89 89 89 89 89 88 88 88 87 85 82
73 71 68 71 75 79 83 86 86 86 87 87 89 91 91 87 85 85 86 85 85 86 87 85 85 85 82 80 80 82 83 85 86 87 88 88 86 84 83 82 81 80 80 79 79 78 78 77 76 76 75 75 75 75 75 76 76 76 75 75 75 75 75 75 82 91 96 95 94 93 92 91 90 89 88 87 85 84 80 79 80 81 82 83 82 81 80 81 84 87 87 86 85 84 85 87 88 87 86 87 87 87 85
70 72 73 75 78 81 81 81 82 82 81 86 87 87 87 85 83 83 84 84 84 85 85 83 83 82 80 80 80 81 81 83 84 83 83 83 82 80 79 78 78 78 78 78 77 77 77 77 76 76 75 75 75 75 76 76 76 76 76 75 75 75 75 76 82 89 93 92 92 92 90 87 84 83 83 84 84 83 82 81 80 80 81 81 81 81 81 80 79 79 79 79 78 79 80 81 82 83 85 85 86 88 89
65 68 69 73 76 77 76 79 79 79 79 79 79 81 82 80 79 80 81 82 83 83 82 82 81 80 80 80 80 79 79 79 79 79 79 78 77 77 76 77 77 77 77 76 76 76 76 76 76 76 76 75 75 75 76 76 76 76 76 75 75 75 75 76 81 88 91 90 89 88 87 85 85 84 84 83 82 81 81 83 82 80 79 80 80 81 82 82 82 81 80 82 83 84 83 83 84 84 85 84 86 90 94
58 60 62 65 67 68 67 67 70 74 75 75 75 76 76 76 77 78 80 81 81 80 80 80 80 79 79 78 78 78 77 77 77 77 76 76 76 76 76 76 76 77 76 76 76 76 76 76 76 76 76 76 76 76 76 76 76 76 76 76 76 76 76 78 83 88 89 86 84 83 82 82 84 85 86 85 85 86 87 90 90 90 89 90 91 91 89 87 87 88 90 91 91 91 91 92 93 93 91 91 91 92 93
57 60 64 66 68 68 69 69 69 70 71 72 73 74 75 76 77 78 79 80 80 80 79 79 78 78 77 77 77 77 76 76 76 76 76 76 76 76 76 77 77 77 77 77 77 77 77 77 77 76 76 76 76 76 77 77 77 77 77 77 76 77 78 84 88 90 87 84 82 81 81 82 85 89 92 92 93 93 93 95 97 97 96 96 97 97 95 93 92 94 96 95 94 94 95 95 95 96 97 98 97 95 92
64 67 69 70 71 72 72 72 72 72 72 73 74 75 75 76 77 77 78 79 79 79 78 78 78 78 78 77 77 77 76 76 76 75 75 76 76 76 76 77 77 77 77 77 77 77 77 77 77 76 76 76 76 76 76 76 76 76 76 75 76 77 82 91 93 91 87 84 83 84 85 85 87 89 90 89 90 91 93 94 94 94 94 95 95 96 96 95 96 97 98 97 96 97 98 98 98 98 99 97 95 91 85
68 69 70 71 72 72 72 72 72 73 73 74 74 75 76 76 77 77 78 78 78 78 78 78 78 78 79 79 78 77 76 75 75 74 74 75 75 75 76 76 76 76 76 76 77 77 76 76 76 75 75 75 74 74 74 74 73 73 73 73 74 77 85 94 93 89 88 85 85 85 85 85 85 84 82 81 81 82 85 88 90 92 93 93 94 94 93 94 95 96 96 95 95 96 97 96 96 95 95 92 88 84 81
68 68 69 70 71 72 72 72 72 73 73 74 74 75 76 76 77 78 78 78 78 78 78 79 79 80 80 79 78 76 74 73 73 73 73 73 73 73 74 74 74 75 75 75 75 75 75 74 73 73 72 72 71 71 70 70 70 70 70 70 72 76 84 93 92 89 89 87 86 85 83 83 82 80 78 77 76 77 78 81 83 84 86 87 88 89 90 92 93 93 92 90 90 90 90 89 89 90 91 89 87 85 84
67 68 69 70 71 72 72 73 73 73 73 74 74 75 76 77 78 78 78 78 78 78 79 79 80 80 79 79 77 75 72 72 71 71 71 71 71 71 71 71 72 72 73 73 73 73 72 72 71 70 69 68 68 67 67 67 67 67 67 68 70 73 79 88 91 90 90 88 88 87 84 83 83 82 80 79 79 78 79 80 80 81 80 80 80 81 83 86 88 89 88 86 85 85 84 84 84 86 88 86 85 84 86
68 69 71 72 72 73 73 73 73 73 73 74 74 75 76 77 78 78 78 79 79 79 79 79 79 79 79 78 76 73 71 70 70 70 70 69 69 69 69 69 69 70 71 71 71 71 70 69 68 67 66 65 64 63 63 63 63 63 63 64 67 69 73 81 86 89 89 89 89 89 86 86 85 84 83 84 84 84 83 82 81 80 79 76 76 77 78 79 81 82 83 82 81 81 81 83 84 84 86 85 84 84 86
70 72 73 74 74 74 74 74 74 74 74 74 75 76 76 77 78 79 79 79 79 79 79 79 79 79 79 78 75 72 69 68 68 68 68 68 68 68 68 68 68 69 69 69 68 68 67 66 64 63 62 60 59 58 58 58 58 58 58 59 61 65 68 74 78 83 86 86 85 84 83 83 81 80 80 80 81 82 82 82 83 83 81 80 79 78 78 78 78 78 79 79 79 78 78 80 81 81 83 83 83 84 84
72 74 75 75 75 75 75 75 75 75 74 74 75 76 77 78 79 79 80 80 80 80 79 79 79 79 79 78 75 72 68 68 67 67 67 67 67 67 67 67 67 66 66 65 64 63 62 61 59 57 55 54 52 51 51 51 51 51 51 52 54 58 63 68 72 76 78 79 78 76 75 74 73 72 72 72 72 72 72 74 77 80 83 84 84 82 79 77 76 76 76 76 76 76 76 77 78 79 80 80 81 81 81
74 75 75 76 76 76 76 76 76 75 75 75 75 76 77 78 79 80 81 81 80 79 78 78 78 78 78 78 76 72 68 67 66 66 66 65 65 65 64 63 62 61 59 58 58 57 56 54 52 50 48 46 45 44 43 43 43 43 44 44 46 49 54 60 66 70 72 72 71 70 69 68 67 66 66 66 65 63 61 60 61 64 70 76 81 84 84 83 82 80 78 76 75 75 78 82 84 84 84 82 80 79 81
75 75 76 76 76 76 76 76 76 76 75 75 75 76 77 78 80 81 81 80 79 78 76 76 76 76 76 77 75 72 67 65 64 63 63 62 61 60 59 57 56 54 53 52 51 51 50 49 47 45 43 42 40 39 38 37 37 37 38 38 38 40 44 49 57 63 67 68 68 67 67 65 65 65 65 65 64 62 56 51 49 49 52 60 69 78 86 89 91 92 90 86 83 83 87 91 94 95 95 90 85 82 82
76 76 76 76 76 76 76 76 76 76 76 76 76 76 77 79 80 81 81 81 79 77 75 74 73 73 73 73 72 69 64 61 59 59 58 56 55 54 53 51 49 48 47 47 46 46 46 45 44 43 42 40 38 37 36 35 34 34 34 34 34 35 37 41 48 56 62 67 68 67 66 64 64 65 66 67 68 66 61 53 49 47 48 56 66 76 86 90 93 96 98 96 95 95 95 95 97 99 100 97 93 90 88
77 77 77 77 77 76 76 76 76 76 76 76 76 76 78 80 82 83 83 82 80 77 74 72 71 70 68 69 67 63 58 56 54 53 52 50 48 47 45 43 43 42 41 41 41 41 42 41 41 40 40 38 37 36 35 34 33 33 32 33 33 35 36 39 43 51 60 67 69 68 66 64 64 65 65 66 68 68 68 61 58 57 57 63 71 79 87 87 89 93 98 99 97 95 92 92 95 98 100 99 97 95 94
78 78 78 77 76 76 76 76 76 76 76 76 76 77 79 82 83 85 85 83 81 78 72 70 68 67 65 63 61 58 54 52 50 49 47 45 42 40 38 37 36 35 35 35 35 35 36 35 35 35 36 35 35 34 34 33 32 32 32 32 33 34 36 39 43 50 62 68 70 69 67 65 64 64 62 61 62 65 68 67 67 67 68 71 74 77 81 79 80 84 90 93 91 86 81 81 85 91 99 99 98 97 98
78 78 78 76 76 77 76 76 76 76 76 76 77 78 81 83 85 85 85 83 79 74 68 65 63 62 61 59 57 55 52 50 47 46 44 41 38 36 35 34 33 32 31 31 31 31 30 30 30 31 31 31 32 32 32 31 31 31 31 31 32 34 35 38 42 50 60 66 68 68 66 65 63 61 59 57 57 59 65 65 67 71 71 71 71 72 71 73 75 76 78 82 81 78 73 71 74 81 92 95 95 94 94
79 78 77 77 77 77 77 77 78 79 81 81 82 83 85 86 85 83 79 74 69 65 61 59 59 59 59 57 54 53 51 48 45 43 40 39 37 35 33 32 31 30 29 29 28 27 26 26 26 27 27 28 29 29 29 29 29 29 30 31 31 32 34 36 41 47 57 63 65 64 64 62 61 60 60 54 53 56 63 61 64 68 67 67 66 66 67 68 68 68 69 70 70 70 71 70 72 76 82 85 87 87 85
79 78 77 77 77 77 77 79 80 82 83 85 87 89 91 86 80 74 67 63 61 59 59 58 56 55 56 53 51 49 48 45 42 40 38 37 35 33 30 28 28 27 27 26 24 23 23 23 24 25 25 26 27 27 27 28 28 28 29 30 30 31 32 34 38 43 51 58 60 61 60 59 59 59 58 53 53 55 60 61 63 65 64 64 64 64 65 65 65 65 64 64 64 65 67 68 69 71 72 73 73 74 75
79 78 78 77 76 76 76 76 78 80 81 82 85 86 84 76 69 65 61 60 60 60 58 56 54 52 52 49 48 47 45 42 39 37 35 34 32 29 27 25 24 23 22 21 20 20 20 21 22 23 25 26 26 26 26 26 27 27 28 28 29 29 30 31 34 38 43 50 54 55 55 55 56 56 56 56 56 57 59 58 60 63 63 61 62 63 64 63 63 63 63 62 62 62 63 63 63 64 64 64 65 66 67
78 79 79 77 76 75 74 73 73 73 73 72 71 69 65 63 62 61 60 59 58 56 52 51 51 51 50 47 46 45 42 38 36 34 32 29 27 24 22 21 20 19 18 17 17 18 20 21 23 24 25 26 26 26 26 26 25 26 26 27 27 27 28 28 29 31 34 41 46 49 50 50 50 51 51 54 57 59 60 59 59 59 59 61 62 62 62 61 61 60 60 60 59 59 59 60 61 61 61 61 62 62 62
79 79 79 76 75 73 70 69 67 64 63 61 59 57 55 56 57 58 56 54 51 49 48 48 48 47 45 43 42 40 36 35 33 31 27 24 21 18 17 16 15 15 14 15 17 19 21 23 24 25 26 26 26 26 25 24 24 24 24 24 25 26 26 26 26 26 27 31 36 41 43 44 44 45 47 51 53 55 56 55 55 55 56 59 59 59 59 59 59 59 59 58 57 56 56 57 57 57 58 58 59 59 59
78 78 78 76 74 71 69 66 62 58 55 55 55 53 50 50 50 50 48 47 46 46 45 44 43 41 38 38 35 33 31 30 28 25 21 18 15 13 12 12 12 13 13 16 18 21 23 24 25 25 26 26 26 25 24 23 22 22 22 22 23 24 25 25 25 25 25 25 28 32 34 36 38 40 42 47 50 51 51 52 53 54 54 55 55 56 56 55 55 55 55 55 54 54 54 54 54 54 54 55 56 56 57
76 76 75 74 71 69 66 64 60 56 52 51 51 50 48 46 45 44 43 43 42 42 41 39 36 34 31 30 27 25 25 23 20 17 14 13 11 10 10 11 12 13 14 17 20 23 25 25 26 26 26 26 25 24 23 22 21 20 20 21 21 22 23 23 23 23 23 23 23 25 26 28 30 33 36 43 46 47 48 49 50 50 51 50 51 52 52 51 51 51 51 51 51 51 52 52 52 53 54 54 54 55 55
74 72 71 68 66 65 62 59 56 53 52 51 50 48 46 44 43 42 40 39 38 37 35 32 29 26 24 22 20 18 18 16 13 10 10 9 9 10 11 12 14 15 16 18 21 25 26 26 26 26 26 26 25 23 22 20 19 18 19 19 20 21 22 22 22 21 21 20 20 20 21 22 24 26 30 35 40 44 43 45 46 46 46 46 47 48 48 48 48 49 48 49 49 50 50 51 52 53 54 54 54 54 55
72 71 69 65 62 59 58 56 53 52 54 51 48 45 42 41 39 38 36 34 33 31 29 25 23 21 18 16 15 13 12 10 8 8 9 10 11 12 14 15 16 17 17 19 22 26 27 26 26 26 26 26 24 22 20 18 17 17 18 18 19 20 21 21 20 20 19 18 18 17 17 18 18 20 23 29 35 40 41 42 42 42 42 43 45 46 46 46 46 46 47 48 49 50 51 51 52 52 53 53 54 55 56
71 70 68 64 60 57 54 52 50 49 49 46 43 40 38 36 35 33 31 29 27 26 23 20 18 16 14 13 11 10 9 8 9 10 12 13 14 15 16 17 17 17 17 18 22 25 26 26 26 26 26 26 24 22 19 16 15 16 17 17 18 19 20 19 18 18 17 17 16 16 16 16 16 16 18 24 30 35 37 37 38 38 38 40 42 44 44 44 45 46 48 48 49 50 51 51 51 52 53 54 55 57 57
71 68 66 62 57 53 51 48 46 45 43 41 38 36 35 33 30 28 26 24 22 20 18 15 14 12 11 10 9 9 10 11 12 13 14 15 16 16 17 17 17 17 17 18 21 24 25 26 26 26 26 26 24 21 17 15 14 15 16 17 17 18 18 18 17 17 16 16 15 15 15 15 15 15 16 20 26 30 31 30 30 31 31 35 39 42 43 44 45 46 47 48 49 49 50 51 52 53 54 56 57 57 58
69 66 62 56 53 52 53 50 46 42 39 37 35 33 31 28 26 24 21 20 18 15 13 11 10 10 10 10 10 11 13 13 14 14 15 16 16 17 17 17 16 16 16 17 19 22 23 24 25 26 26 25 23 21 17 15 14 14 15 16 17 17 17 17 16 16 15 15 15 15 15 15 15 15 16 18 22 25 25 22 22 24 27 31 35 39 41 43 44 45 46 47 48 49 50 51 53 54 55 56 57 57 57
64 60 55 52 53 55 53 46 40 36 35 32 30 28 26 24 22 19 17 15 13 12 10 9 9 9 10 11 12 14 15 15 15 15 15 16 16 16 16 16 15 15 15 16 18 20 21 22 23 25 26 25 23 21 18 15 13 13 14 15 16 16 16 16 15 15 15 15 15 16 16 16 16 16 16 18 19 19 19 18 18 18 23 28 32 36 39 42 44 45 46 46 47 48 50 52 53 54 55 56 56 56 55
57 55 54 58 57 53 44 38 34 32 30 28 26 24 22 20 18 15 11 10 10 9 9 9 9 10 12 13 14 15 15 15 15 15 15 15 15 14 14 14 14 14 15 15 16 17 18 19 21 23 25 25 23 21 18 15 13 12 13 14 15 16 16 15 15 15 15 16 16 16 16 17 16 16 16 17 18 18 17 17 16 16 17 25 31 34 38 41 44 45 45 46 47 49 50 52 53 54 55 55 55 54 54
61 63 67 65 54 41 35 33 31 29 27 25 23 21 19 17 14 11 8 7 7 8 9 10 11 12 14 15 15 15 15 15 14 14 14 14 13 13 13 13 14 14 14 15 15 16 16 17 19 22 24 24 23 21 19 16 13 12 13 14 14 15 15 15 15 15 16 16 17 17 17 17 17 17 16 16 16 16 16 15 15 15 15 23 29 33 36 40 43 45 45 46 47 49 51 53 54 55 55 54 54 53 53
73 69 64 51 39 31 31 30 29 27 24 22 19 18 16 13 10 8 7 7 7 9 10 12 14 15 15 15 15 15 15 14 13 13 13 13 12 12 12 13 13 14 14 14 14 14 15 16 18 20 22 23 23 22 19 16 13 12 12 13 14 15 15 15 15 15 16 17 17 18 18 17 17 17 16 16 16 15 15 14 14 14 16 22 27 32 35 38 42 46 47 47 49 51 54 54 56 56 55 54 53 53 53
59 48 38 31 27 27 27 27 26 24 21 19 17 15 13 10 7 6 6 7 8 10 13 14 15 16 15 15 15 14 14 13 12 12 11 11 11 11 12 13 13 13 13 13 14 14 14 15 17 19 21 22 22 21 19 15 13 12 12 13 14 14 14 15 15 16 16 17 17 18 18 17 17 16 16 16 15 15 14 14 14 14 16 20 25 30 33 37 41 45 48 50 52 55 58 57 58 57 55 54 54 53 53
33 27 24 23 24 24 24 23 21 19 18 16 14 12 10 7 6 6 7 8 9 11 13 15 16 16 15 15 14 13 13 12 11 11 10 11 11 11 12 13 13 13 13 13 13 14 14 15 17 18 20 21 21 20 18 15 13 12 12 13 14 14 14 14 15 15 16 17 17 17 17 17 16 16 16 15 15 14 14 14 14 15 16 19 23 27 32 35 38 41 43 47 52 57 59 59 58 57 55 54 54 54 53
22 21 21 21 22 22 21 20 18 16 14 14 12 10 8 6 6 6 7 9 10 11 13 14 15 15 14 14 13 12 12 11 10 10 10 10 10 11 12 13 13 13 13 13 13 13 14 15 16 18 19 20 20 19 16 14 12 12 12 13 13 14 14 14 15 15 16 16 17 17 16 16 16 15 15 15 14 14 14 14 14 15 16 18 20 23 29 33 35 36 38 41 49 55 59 59 58 56 54 55 55 55 53
19 19 19 19 19 19 19 18 15 13 12 11 10 9 7 6 6 7 7 9 10 11 12 12 13 14 13 12 11 11 10 9 9 9 10 10 11 11 13 13 13 13 12 12 13 13 14 14 16 18 19 20 19 18 15 13 12 11 11 12 13 14 14 14 15 15 15 16 16 16 15 15 15 15 14 14 14 14 13 14 14 15 16 17 19 21 24 29 31 33 34 37 45 54 58 57 56 55 54 55 55 55 54
19 18 17 17 16 16 17 16 14 12 11 10 9 7 6 6 6 7 8 9 10 11 11 11 11 12 11 11 10 10 9 9 9 9 10 10 11 12 14 13 13 13 13 12 13 13 14 14 16 18 19 19 18 17 14 12 11 11 12 13 14 14 14 14 15 15 15 15 15 15 15 14 14 14 14 14 14 14 14 14 14 15 16 17 18 19 21 24 26 27 31 35 43 52 56 56 56 55 55 56 56 57 56
18 17 15 15 15 15 15 14 12 11 9 9 8 7 6 6 7 8 9 9 10 11 11 11 11 10 10 10 10 9 9 9 9 10 12 12 13 14 15 14 14 13 13 13 13 13 13 15 16 18 19 19 17 15 13 12 11 12 13 14 15 15 15 15 15 15 15 15 15 15 14 14 14 14 14 14 14 14 14 14 15 15 16 16 17 18 20 21 23 24 26 33 41 49 54 55 56 56 56 57 57 58 58
18 16 14 14 14 14 14 12 11 9 8 7 6 6 6 7 8 8 9 10 10 11 11 11 10 10 9 10 10 11 10 11 11 12 14 16 18 18 17 16 15 14 13 13 13 13 13 15 17 18 18 17 16 14 12 12 13 14 16 16 16 15 15 15 16 16 16 15 15 15 15 15 15 15 15 15 15 15 15 16 16 16 16 17 18 19 20 21 22 23 25 33 40 46 51 53 54 55 57 57 57 57 59
17 15 14 13 13 13 13 11 9 8 6 6 6 6 7 7 8 9 9 10 10 11 11 10 10 9 9 11 13 14 14 15 14 14 17 22 26 27 25 22 18 15 14 13 13 13 14 16 17 18 17 15 14 12 12 13 15 16 17 17 16 16 16 16 17 16 16 16 16 16 16 15 15 15 15 16 16 16 16 16 17 17 17 18 19 20 21 22 23 24 26 32 38 43 47 49 51 53 56 55 56 57 60
16 14 14 13 13 12 11 10 8 7 6 6 6 6 7 8 8 9 9 10 10 10 10 9 9 9 8 11 14 16 18 19 20 21 26 30 32 33 36 39 35 26 16 15 13 13 16 17 17 16 15 13 12 13 14 16 17 17 17 17 17 17 17 18 18 17 17 17 17 17 17 17 16 16 16 17 17 17 17 17 17 18 18 19 20 21 22 23 24 25 26 31 35 38 40 41 45 50 54 54 56 58 60
14 13 12 12 12 11 10 9 8 7 7 6 6 6 7 8 9 9 9 10 9 9 9 8 8 8 9 10 12 15 19 23 26 29 32 33 31 31 37 43 37 27 22 23 19 15 15 15 14 13 13 13 14 15 16 17 17 17 17 17 18 18 18 18 18 18 18 18 18 18 18 18 18 18 18 18 18 18 18 18 18 19 19 20 21 23 24 25 26 26 27 29 30 32 33 35 38 43 52 54 56 58 60
14 11 10 10 10 9 9 8 8 7 7 6 6 6 7 8 9 9 9 9 9 8 8 8 8 8 9 9 10 13 18 24 30 34 34 31 30 31 37 37 33 30 31 27 23 19 16 17 17 18 19 18 17 17 17 17 17 17 18 18 19 19 19 19 19 19 19 19 20 20 19 19 19 19 19 19 19 19 19 19 19 20 21 22 23 24 25 26 26 27 28 29 29 29 29 32 35 41 51 54 56 57 60
13 11 9 7 7 6 7 7 7 7 7 7 6 7 8 8 9 9 9 9 8 8 8 8 8 8 9 10 12 14 18 23 28 33 36 32 31 34 40 41 43 45 49 35 26 21 21 23 23 23 21 18 17 17 17 17 18 18 19 19 19 19 19 19 19 20 20 21 21 21 21 21 21 21 21 21 21 21 20 20 20 21 22 23 24 26 26 27 28 29 29 30 30 30 30 31 34 41 50 55 56 56 59
13 10 8 6 5 5 6 7 7 7 8 7 7 7 8 9 9 9 9 9 9 9 9 9 9 10 13 16 18 18 18 20 25 30 34 33 32 34 43 49 55 57 49 40 31 24 24 26 26 24 19 17 17 17 17 18 18 19 19 19 19 19 19 20 21 21 22 22 22 22 22 22 22 23 23 23 22 22 22 22 22 22 23 24 26 27 28 28 29 30 30 31 31 31 31 31 35 42 51 54 55 56 58
12 10 7 6 5 5 5 6 7 7 8 8 8 8 9 9 10 10 10 10 10 10 10 11 12 13 15 20 22 23 21 20 23 28 32 33 33 34 37 40 38 35 31 31 30 30 30 32 30 25 18 17 17 18 18 19 19 19 19 19 20 20 20 21 22 22 23 23 23 23 23 24 24 24 24 24 24 23 23 23 23 23 24 25 26 28 28 29 30 31 32 32 32 32 32 32 35 42 50 53 54 55 57
11 9 7 6 5 5 5 5 6 7 8 9 9 9 10 10 10 10 10 10 11 12 12 13 15 16 18 21 24 25 24 23 23 26 30 32 32 33 34 35 35 35 33 32 34 35 35 34 30 25 20 19 19 19 19 19 19 20 20 20 20 21 21 22 23 23 23 24 24 24 25 25 25 26 25 25 25 25 24 24 24 25 25 26 27 28 29 30 31 32 33 33 34 33 33 34 37 43 51 52 53 55 56
11 10 8 7 6 6 6 6 6 7 8 9 10 10 10 10 10 11 11 12 13 14 15 15 17 18 20 22 24 26 27 29 28 27 29 31 31 32 33 34 36 36 35 36 39 41 43 39 35 30 25 23 20 19 19 19 20 20 20 20 21 21 22 23 24 24 25 25 25 26 26 26 26 26 26 26 26 26 26 25 25 26 26 27 28 29 30 31 32 33 34 34 34 34 33 33 37 43 51 51 53 55 57
12 10 9 8 7 7 6 6 7 7 9 10 10 10 11 11 11 12 12 13 14 16 17 18 19 21 22 24 25 27 30 33 34 33 31 31 32 32 33 32 33 33 35 35 35 37 42 45 42 36 33 27 23 21 20 20 20 20 21 21 22 23 24 24 25 25 26 26 26 26 26 26 26 27 27 27 27 27 27 26 26 27 27 28 29 30 31 32 32 33 34 34 34 34 33 33 36 43 49 51 53 56 59
12 10 9 9 8 8 7 7 7 8 9 10 10 11 11 11 12 12 13 14 15 17 18 20 21 22 24 25 26 27 31 34 35 35 35 34 34 34 34 33 33 33 33 33 33 33 34 39 41 41 38 35 30 26 23 21 21 21 21 22 23 24 25 26 26 26 26 26 26 27 27 27 27 27 28 28 28 28 28 28 28 28 29 29 30 31 31 32 32 33 33 34 34 34 33 34 39 45 50 52 55 58 60
11 10 9 9 9 9 8 8 8 8 9 10 10 11 12 12 12 13 13 15 16 18 19 21 22 24 25 26 27 28 31 32 34 35 35 37 37 37 35 35 35 34 34 34 34 34 33 33 34 36 38 43 39 32 27 25 23 22 22 23 24 26 26 26 26 26 26 26 27 27 27 27 28 28 28 28 28 28 29 29 29 29 29 30 30 31 32 32 33 33 34 34 34 34 33 36 43 49 52 54 56 58 59
Wind_Speed
3 4 4 3 3 3 2 1 1 1 2 2 2 2 1 1 2 2 2 3 3 4 4 5 5 5 4 4 4 5 6 6 7 7 8 8 8 8 7 8 8 8 8 8 8 8 8 9 10 10 11 12 12 13 13 13 12 12 11 10 9 9 8 8 9 9 10 10 10 10 11 11 11 11 10 10 10 11 11 12 12 13 13 13 13 13 12 12 12 12 12 12 12 12 12 12 13 13 13 13 14 15 15
4 4 4 3 2 2 1 1 1 2 2 3 3 2 2 2 3 3 3 4 4 5 5 6 6 6 6 6 6 7 7 7 8 9 9 9 9 8 8 8 8 8 9 9 9 8 9 9 10 10 11 12 13 14 14 14 14 13 13 12 11 10 9 9 9 9 10 10 10 11 11 11 11 11 11 11 12 12 11 12 12 12 13 14 14 14 13 13 13 13 12 12 12 12 12 13 13 13 13 13 14 14 15
4 3 2 2 1 1 1 2 2 2 2 3 3 3 3 3 3 3 4 5 5 6 6 7 7 7 8 8 8 8 9 9 9 10 10 9 9 9 9 9 9 9 9 10 10 10 10 11 11 12 14 14 15 15 14 14 14 13 13 12 11 10 10 9 9 8 9 9 10 11 11 12 12 12 12 12 12 13 13 13 12 12 12 13 14 14 14 13 13 13 13 13 12 13 13 13 14 14 14 14 14 14 15
3 2 2 2 2 2 2 2 2 2 3 3 3 3 3 3 4 4 4 5 6 6 6 7 7 8 8 9 9 9 10 10 10 10 10 10 9 9 9 9 9 9 10 10 11 11 12 13 13 14 14 14 14 13 13 13 13 13 12 12 11 10 10 9 9 8 8 9 9 10 11 11 12 12 13 13 13 14 14 14 14 13 13 13 13 14 14 14 13 13 13 14 14 14 14 14 14 14 14 15 15 15 15
1 1 2 3 4 3 2 2 3 3 4 4 4 4 4 4 4 5 5 6 6 7 7 8 8 9 9 9 10 10 11 11 11 10 10 10 10 9 9 9 9 10 10 11 11 12 12 12 12 12 12 12 12 12 12 12 12 12 12 11 11 10 10 10 9 8 8 8 8 8 9 10 11 12 12 13 13 14 14 14 14 14 14 13 12 13 13 14 14 14 14 14 14 15 15 15 15 15 15 15 15 16 16
1 2 3 3 3 3 2 3 4 4 5 5 5 4 5 5 5 6 6 7 7 8 8 9 9 9 10 10 10 10 10 10 10 10 9 9 9 9 9 9 9 10 10 10 11 11 11 11 11 10 10 10 10 11 11 11 11 12 12 11 11 11 11 11 9 8 7 7 7 7 7 8 9 10 11 11 12 13 13 13 14 14 14 13 12 12 13 14 14 14 15 15 15 15 15 15 15 15 15 15 15 16 16
2 2 3 3 3 2 2 3 4 5 6 6 6 5 5 6 6 6 7 8 8 9 9 9 10 9 10 10 10 9 9 9 9 8 8 8 9 9 9 9 9 9 10 10 10 10 10 10 9 9 9 9 10 10 10 11 11 11 11 11 11 11 11 11 10 9 7 7 7 7 7 8 8 9 9 10 10 11 11 12 12 12 13 13 12 13 13 14 15 15 16 15 15 15 15 15 15 16 15 15 15 15 16
2 3 3 3 3 3 3 3 4 5 6 6 6 6 6 6 7 7 8 8 9 9 9 9 9 9 9 9 8 8 8 8 8 8 8 8 8 8 8 8 9 9 9 9 9 9 9 9 8 8 9 9 10 10 10 11 11 11 11 11 11 11 11 11 11 9 8 8 8 8 8 8 8 8 8 9 9 10 10 10 11 12 12 12 12 12 13 14 15 15 15 15 15 15 15 15 15 16 16 16 16 16 16
3 3 3 3 3 3 3 3 4 4 5 6 6 6 6 6 7 7 8 8 8 8 8 8 8 8 8 7 7 7 7 8 8 8 8 8 8 8 8 9 9 9 9 9 9 8 8 8 8 9 9 10 10 10 10 10 11 11 11 11 11 11 11 11 11 10 9 9 9 9 9 9 8 8 8 8 9 9 10 10 11 11 12 12 12 12 13 14 15 15 15 14 14 15 15 16 15 15 16 16 16 16 17
4 4 4 4 4 4 5 4 4 5 5 5 6 6 6 6 6 7 7 8 8 8 7 7 7 7 7 7 7 8 8 8 8 8 8 8 9 9 9 9 9 9 9 9 8 8 9 9 9 10 10 10 10 10 10 10 10 11 11 11 11 11 11 11 11 10 9 9 9 9 9 9 8 8 8 9 9 10 10 10 11 12 13 13 13 14 14 14 14 14 15 15 15 15 16 16 16 16 16 17 17 17 17
5 5 5 5 5 5 6 6 5 6 6 5 5 6 6 6 6 7 7 7 7 7 7 7 7 7 7 8 8 8 8 9 9 9 9 9 9 9 9 9 9 9 9 9 9 9 9 10 10 10 11 11 11 10 10 10 10 10 11 11 11 11 11 11 10 10 9 9 8 8 8 8 8 9 9 9 10 10 11 12 13 13 14 14 14 15 15 15 15 15 15 15 15 15 16 16 16 16 16 17 17 18 18
5 5 5 5 5 5 6 6 6 6 6 6 6 6 6 6 7 7 7 7 7 6 6 7 7 7 8 8 8 8 9 9 9 9 9 9 9 9 9 9 9 9 9 9 9 9 10 10 11 11 10 10 10 10 10 10 10 10 11 11 11 11 11 11 10 10 9 8 8 8 8 8 9 9 10 10 10 11 12 14 15 15 16 15 15 15 15 15 16 16 16 15 15 15 16 16 15 16 17 16 16 16 17
4 4 4 4 5 5 5 6 6 6 6 6 6 6 6 6 7 7 7 7 6 6 6 7 7 8 8 8 9 9 9 9 9 9 9 9 9 9 9 9 9 9 9 9 9 9 10 10 10 10 9 9 10 10 10 10 10 10 11 11 11 11 11 11 11 10 9 8 8 8 8 9 10 11 11 11 12 12 13 13 14 15 15 14 14 13 14 15 16 16 15 14 15 15 16 15 16 17 17 15 13 13 16
2 3 3 4 4 4 4 4 5 5 5 5 5 5 6 6 6 7 7 6 6 6 6 7 8 8 9 9 9 9 8 8 8 8 8 8 8 8 8 8 8 8 8 8 8 8 8 8 8 8 8 9 9 9 10 10 10 10 11 11 11 11 12 12 11 9 8 8 9 9 10 11 11 12 12 12 12 12 13 12 13 14 14 13 13 13 13 14 15 14 13 13 14 15 14 14 15 16 15 13 12 13 16
2 3 3 3 4 4 4 4 4 4 4 5 5 5 6 6 6 6 6 6 6 6 6 7 8 9 9 9 9 8 8 7 7 7 7 8 8 7 7 7 6 6 7 7 7 7 7 7 8 8 8 9 9 9 10 10 11 11 11 11 11 11 12 11 10 9 9 9 10 10 11 12 12 12 12 12 11 11 12 12 12 12 12 12 12 13 14 15 14 13 12 13 14 14 13 12 13 14 14 14 14 15 16
2 3 3 3 3 3 3 3 4 4 4 5 5 5 6 6 6 6 6 6 6 6 7 7 8 9 9 9 8 7 7 6 6 7 7 7 7 7 7 6 6 6 6 7 7 7 7 8 8 9 9 10 10 11 11 12 12 12 13 13 12 12 12 11 10 9 10 10 10 11 11 12 12 12 12 12 12 12 12 12 12 12 12 11 11 12 13 14 14 13 13 14 15 15 15 14 14 14 14 14 15 16 16
2 3 3 3 3 3 3 3 4 4 4 5 5 5 6 6 6 6 6 6 6 6 7 8 8 9 9 9 8 7 6 6 6 7 7 8 8 8 8 7 7 7 7 7 8 8 8 9 9 10 10 11 11 12 12 13 13 14 13 13 13 12 11 11 10 10 11 11 11 11 11 12 12 12 12 12 12 12 13 13 13 13 13 13 13 12 12 12 12 13 13 14 15 16 15 15 15 15 14 15 16 16 16
2 2 2 2 3 3 3 3 4 4 4 5 5 5 6 6 6 6 7 7 7 7 8 8 8 9 9 9 8 7 7 7 7 7 8 9 9 9 9 8 8 8 8 8 8 9 9 9 10 10 11 11 12 12 13 13 13 13 13 13 13 12 11 10 10 10 10 11 11 12 12 12 13 13 12 12 12 12 12 12 13 13 13 13 13 13 13 13 13 12 13 13 14 14 14 14 14 14 14 15 16 16 16
2 2 2 3 3 3 3 4 4 4 4 4 4 5 5 6 6 7 7 7 7 8 8 9 9 9 9 9 8 7 7 7 7 8 8 9 10 10 9 9 9 8 8 8 8 8 9 9 9 10 10 10 11 11 12 12 12 12 12 12 12 11 9 9 9 9 9 10 10 11 11 12 12 12 12 12 13 12 12 12 13 13 13 13 13 13 14 14 14 14 13 13 13 14 14 14 14 15 15 15 15 15 15
2 2 3 3 3 3 3 4 4 4 4 4 3 4 5 5 6 6 6 7 8 8 9 9 9 9 9 9 8 8 7 7 7 8 8 9 9 9 9 9 8 8 8 7 7 8 8 8 9 9 9 9 10 10 10 11 11 11 11 11 10 9 8 8 8 8 9 9 9 9 10 11 11 12 12 12 13 13 13 13 13 13 13 13 14 14 14 14 14 14 14 13 14 14 15 15 15 16 16 15 15 14 14
2 2 3 3 3 3 4 4 4 4 4 3 2 2 3 4 4 5 5 6 7 7 8 8 9 9 9 9 9 8 7 7 7 7 7 8 8 9 9 8 8 7 7 6 7 7 7 8 8 8 8 9 9 9 9 10 10 10 10 10 9 9 8 7 7 8 9 9 9 9 9 10 10 11 11 12 12 13 13 13 14 14 14 14 15 15 15 15 15 14 14 14 14 14 14 14 15 15 15 14 14 14 13
2 2 3 3 4 4 5 5 4 4 4 2 1 1 2 2 2 3 3 4 5 6 7 8 8 8 9 9 9 8 7 6 6 6 6 7 7 7 7 7 7 6 6 6 7 7 7 8 8 8 9 9 9 9 9 9 9 9 9 9 9 9 8 8 8 8 9 9 9 9 9 9 10 10 11 11 12 12 13 14 14 15 15 15 15 15 15 16 16 15 15 15 14 13 12 13 13 13 12 12 12 13 13
2 3 4 5 5 5 5 5 4 4 3 1 1 1 0 0 1 2 2 3 3 4 6 7 8 8 7 8 8 7 6 5 5 5 6 6 6 6 6 6 6 6 7 7 8 8 8 9 9 9 9 10 10 10 10 10 10 9 9 9 9 9 8 8 8 8 9 10 10 9 9 9 9 10 10 11 11 12 12 13 15 15 15 14 14 14 13 15 16 15 14 12 10 9 10 12 13 11 10 9 9 10 11
3 4 4 5 5 4 4 4 3 3 2 1 1 1 1 1 2 2 3 3 3 4 5 6 6 6 5 5 5 5 5 5 5 6 6 6 6 6 6 7 7 8 8 9 9 10 10 10 10 11 11 11 11 11 11 10 10 10 9 9 8 8 8 7 7 8 9 10 11 10 10 9 9 10 10 11 11 11 12 13 14 14 13 12 12 11 11 12 14 13 11 10 10 9 10 12 13 11 9 8 7 7 9
3 4 3 3 3 3 4 4 3 3 2 2 2 3 3 3 3 4 4 3 3 4 4 5 4 3 3 3 3 4 4 5 6 6 7 7 7 7 7 8 9 10 10 11 11 11 12 12 12 12 12 12 11 11 11 10 10 9 9 8 7 7 7 6 6 7 9 10 11 11 11 10 10 10 10 10 11 12 12 12 12 12 11 10 10 10 12 13 14 13 13 13 13 13 13 15 15 14 10 7 6 6 8
2 2 1 2 2 3 3 4 4 3 2 2 3 3 3 3 4 4 4 4 3 3 3 3 2 2 2 3 4 4 5 6 6 7 7 8 8 9 9 10 11 11 12 12 12 12 12 12 13 12 12 12 11 10 10 9 8 8 7 7 6 5 5 5 5 6 8 9 11 11 11 11 11 10 10 9 10 11 12 11 11 12 12 10 10 11 13 13 13 13 12 12 14 16 17 18 18 16 13 10 7 7 10
0 0 1 1 2 3 3 3 3 2 1 1 2 2 2 3 3 4 3 3 2 2 3 2 2 2 2 4 4 5 5 6 7 8 8 9 10 10 11 11 12 12 12 13 13 13 12 12 12 12 11 11 10 9 8 8 7 6 6 5 5 4 4 4 4 5 7 9 10 10 11 11 11 11 10 9 9 10 11 10 10 12 12 11 11 13 13 13 12 12 12 12 13 15 15 16 16 15 13 12 11 11 13
1 1 1 1 1 2 1 1 1 1 1 1 1 2 2 3 3 3 3 3 3 3 3 2 2 2 3 4 5 5 6 7 8 9 10 11 11 12 12 12 12 12 13 13 12 12 12 12 11 11 10 9 8 7 7 6 6 5 5 5 4 4 4 3 3 4 6 8 9 10 10 11 11 11 11 9 9 9 9 9 11 12 12 12 12 13 13 13 13 13 13 14 14 13 12 12 11 11 11 11 12 13 13
2 2 2 1 1 0 1 1 2 2 2 2 1 1 1 2 2 2 2 3 3 4 4 3 3 4 5 5 6 6 7 8 9 10 11 11 12 12 12 12 12 12 12 12 12 11 11 11 10 9 9 8 7 6 6 6 6 6 5 5 5 4 4 4 4 4 5 7 9 9 10 10 11 11 11 10 9 9 9 9 10 12 12 11 11 12 13 13 13 13 14 13 13 12 11 10 10 11 11 12 12 12 12
3 3 3 1 1 1 3 3 2 2 2 2 2 2 1 1 1 1 2 3 3 3 3 4 5 6 6 7 8 8 9 10 11 11 11 12 12 12 12 12 12 12 12 12 11 11 10 9 9 8 8 7 6 6 6 7 7 6 6 5 5 5 5 5 5 5 6 7 8 9 10 10 10 10 10 11 11 11 11 10 10 10 11 12 12 12 12 12 12 12 12 12 12 11 11 11 11 12 12 13 13 12 12
4 4 4 3 3 4 4 4 4 5 4 4 3 3 3 2 1 1 2 3 3 4 4 5 6 7 8 9 9 9 10 11 11 11 12 11 11 11 11 11 11 11 11 11 10 10 9 9 8 8 7 7 6 6 7 7 7 7 7 6 6 6 6 6 6 6 6 7 8 9 10 10 10 10 10 11 11 11 11 11 10 10 11 13 13 12 12 13 13 13 13 12 12 12 12 12 13 13 13 13 13 13 13
5 4 4 4 4 4 4 4 5 5 5 4 3 3 3 2 3 3 3 3 4 5 6 7 7 8 9 9 10 10 10 11 11 11 11 11 11 11 11 11 11 11 11 11 10 9 9 8 8 7 7 7 6 6 7 8 8 8 8 7 7 7 7 7 7 7 8 8 9 9 10 10 10 10 10 11 11 11 11 11 12 12 12 13 13 12 13 13 13 13 13 13 13 13 13 13 14 14 14 14 13 13 13
4 4 3 3 3 3 3 4 4 4 4 4 3 3 3 3 3 4 4 4 5 6 6 7 8 8 9 9 9 10 10 11 11 11 11 11 10 11 11 11 11 11 11 11 10 9 8 7 7 7 7 7 7 7 8 8 9 9 8 8 8 8 8 8 8 8 9 9 10 10 10 10 10 10 11 11 11 11 11 11 12 13 13 13 13 13 13 13 13 13 13 13 13 14 14 14 14 14 14 14 14 14 14
4 3 2 3 3 3 3 3 3 3 3 3 3 3 3 4 4 4 5 5 6 6 7 7 8 8 9 9 9 9 9 10 10 10 10 10 11 11 11 11 12 12 12 11 10 8 8 7 7 7 6 6 7 7 8 9 9 9 9 8 8 8 8 9 9 10 10 10 11 11 11 11 11 11 11 11 11 11 11 12 12 13 13 13 13 13 13 13 14 14 14 14 14 14 14 14 14 15 15 15 14 14 14
4 4 4 4 4 4 4 4 4 4 3 2 2 3 4 4 4 5 5 6 6 6 7 7 8 8 8 8 8 8 9 9 10 10 10 11 12 12 12 12 13 13 12 11 9 8 8 7 7 7 6 6 7 8 9 10 10 9 9 8 8 8 9 10 11 11 12 12 12 12 12 12 12 12 11 11 11 12 12 12 13 13 13 13 14 14 14 14 14 14 14 15 15 15 15 15 15 15 15 15 14 14 14
4 4 5 4 4 4 4 4 4 3 3 2 3 3 4 4 4 5 5 6 6 6 7 7 7 8 8 8 9 9 10 11 11 11 12 13 13 13 13 14 14 13 13 11 9 8 8 7 7 7 6 6 7 8 9 10 10 10 9 9 9 9 10 11 12 12 13 13 13 13 13 13 13 13 13 12 12 12 12 13 13 13 14 14 14 14 14 15 15 15 15 15 15 15 15 15 15 15 15 15 14 14 14
5 5 5 5 4 4 4 3 3 2 2 2 3 3 4 4 5 6 6 6 7 7 7 7 8 8 9 10 11 12 12 13 13 14 14 14 14 14 14 14 14 14 13 11 9 8 8 8 7 7 6 6 7 8 10 11 11 10 10 9 9 10 11 12 13 13 14 14 14 14 14 14 14 14 14 13 13 13 13 14 14 14 14 15 15 15 15 15 15 15 15 15 15 15 15 15 15 15 15 15 15 14 14
6 6 5 5 4 4 3 2 2 2 2 3 3 4 5 5 6 7 7 8 8 8 8 8 9 9 10 12 13 13 14 14 15 15 16 15 15 15 15 15 15 14 13 11 9 8 8 8 8 7 6 6 7 8 10 11 12 11 10 10 10 10 11 12 13 14 15 15 15 15 15 15 15 15 15 15 15 15 15 15 16 16 16 16 15 15 15 15 15 15 16 16 16 16 16 16 15 15 15 15 15 15 15
6 6 5 5 4 3 2 1 2 2 3 3 4 4 5 6 7 8 8 8 9 9 9 10 10 11 12 13 14 14 15 15 16 16 16 16 16 16 16 15 15 14 12 11 9 8 8 8 8 7 7 6 7 8 10 11 12 12 11 10 10 11 12 13 14 15 16 16 16 16 16 16 16 16 16 16 16 16 17 17 18 18 18 17 16 16 16 16 16 16 16 16 16 16 16 16 16 16 16 16 16 16 16
6 5 5 4 3 2 2 2 2 3 3 3 4 5 6 7 8 9 9 9 9 10 11 11 12 13 13 14 14 15 15 16 16 16 16 17 17 17 17 16 15 14 12 10 9 8 8 9 9 8 7 7 7 8 9 11 12 12 12 11 11 11 12 14 15 16 16 16 17 17 17 17 17 17 17 18 18 18 18 19 19 19 19 18 17 17 16 16 16 16 16 16 16 16 16 16 16 16 16 16 17 17 17
4 3 3 2 2 2 3 3 3 3 3 4 5 5 6 8 9 10 10 10 10 11 12 12 13 14 15 15 15 15 16 16 16 17 17 18 18 18 18 17 16 14 12 10 9 8 9 9 10 9 8 7 7 7 9 11 13 13 12 11 11 12 13 14 15 16 17 17 17 17 17 17 17 18 18 19 19 19 20 20 21 21 20 19 18 17 17 17 16 16 16 16 16 16 16 16 17 17 17 17 17 17 18
2 2 2 3 3 4 3 3 3 3 3 4 5 6 7 9 10 10 10 11 11 12 13 14 14 15 15 16 16 16 16 17 17 18 18 19 19 19 19 18 16 14 12 10 9 9 9 10 10 10 9 8 7 8 9 11 13 14 13 12 12 12 13 15 16 17 17 17 17 17 18 18 18 19 19 20 20 21 21 22 22 22 21 20 19 18 17 17 17 16 16 16 16 16 16 17 17 17 17 18 18 18 18
3 4 4 4 5 5 4 4 3 3 4 5 6 8 9 10 10 10 11 11 12 13 14 14 15 15 15 16 17 17 17 18 19 19 19 20 20 20 19 18 17 14 12 11 10 10 10 11 11 10 9 8 8 8 10 12 14 14 14 13 12 13 14 15 16 17 17 17 18 18 18 19 19 20 20 21 21 22 22 23 23 23 22 21 19 18 18 17 17 17 17 17 17 17 17 17 18 18 18 18 18 19 19
6 6 6 6 6 6 5 5 5 5 6 7 8 9 10 10 10 11 11 12 12 13 14 14 15 15 16 16 17 18 18 19 20 20 20 21 21 21 20 19 17 15 13 11 10 10 11 11 11 10 9 8 8 9 11 14 15 15 14 13 13 13 15 16 17 18 18 18 18 19 19 20 20 21 21 22 22 23 24 24 24 23 22 21 20 19 19 18 18 17 17 17 17 18 18 18 18 19 19 19 19 19 19
8 7 7 7 7 7 7 7 7 7 8 8 9 9 10 10 10 10 11 12 12 13 14 14 15 15 16 16 17 18 18 19 20 20 21 21 22 21 21 19 17 15 14 12 11 11 11 11 11 10 8 8 8 10 13 15 16 15 15 14 13 14 15 17 18 18 18 18 19 19 20 21 21 22 22 23 24 24 25 25 24 24 23 22 21 21 20 19 19 19 18 18 18 18 19 19 19 19 19 19 19 19 19
9 8 8 8 8 8 9 9 8 8 9 9 9 9 10 10 10 11 11 12 12 13 14 14 15 15 15 16 16 17 18 18 19 20 21 22 22 22 21 19 17 15 14 13 12 12 12 11 10 9 8 8 9 11 14 16 17 16 15 14 14 14 16 17 18 18 18 18 19 20 20 21 22 23 23 24 25 25 26 25 25 24 23 23 22 22 21 21 20 20 20 19 19 19 19 20 20 20 20 20 19 19 19
9 9 9 9 9 9 9 9 9 9 9 9 9 10 11 11 11 11 12 12 13 13 13 14 14 15 15 16 16 17 18 19 20 21 22 22 22 22 21 19 17 14 14 14 13 12 12 11 10 8 7 7 9 12 15 17 17 17 15 14 14 15 16 17 18 18 18 19 19 20 21 22 22 23 24 25 26 26 26 25 25 24 24 24 23 23 23 23 22 22 22 21 20 20 20 20 20 20 20 19 19 19 18
10 9 9 9 9 9 9 9 9 9 10 10 11 11 11 11 11 11 12 12 13 13 13 14 15 16 16 17 17 18 18 19 20 21 21 23 23 22 20 19 17 14 14 14 13 12 11 10 8 7 6 8 10 14 16 17 17 16 14 13 14 16 17 18 18 18 18 19 20 21 21 22 23 24 25 25 26 26 26 25 25 25 24 24 24 24 24 24 24 24 23 22 21 21 21 21 21 20 20 19 19 18 18
9 9 9 9 9 9 9 10 10 10 11 11 11 11 11 11 11 11 11 12 12 13 13 14 15 16 17 18 19 19 19 19 20 20 20 20 20 21 21 20 16 14 14 14 12 11 10 8 6 5 6 9 13 16 17 17 15 13 12 13 15 16 18 18 18 18 19 19 20 21 22 23 24 25 26 26 26 26 25 25 25 25 25 25 25 25 25 25 25 25 25 23 22 21 21 21 21 21 20 19 19 19 18
9 9 9 9 9 10 10 10 10 11 11 11 11 11 10 10 10 11 11 11 12 13 13 14 15 16 17 18 18 18 19 19 20 20 19 18 15 12 13 14 13 12 13 14 11 8 7 5 3 4 8 12 16 17 16 13 11 10 11 13 15 17 18 18 18 19 19 20 21 22 23 24 25 25 26 26 25 25 25 25 25 25 26 26 26 26 26 26 26 26 26 24 23 22 22 21 21 20 20 19 19 19 19
9 9 9 9 10 10 10 10 11 11 11 10 10 10 10 10 10 11 11 12 12 13 13 14 15 15 16 16 17 17 17 18 18 17 14 14 12 9 5 7 8 9 12 13 9 4 3 1 2 6 11 17 19 16 12 9 8 9 11 14 15 17 17 17 18 19 20 21 22 22 23 24 25 26 25 25 24 24 24 24 25 25 26 26 26 27 27 27 27 27 27 26 25 24 23 22 21 20 20 19 19 19 19
9 9 9 10 10 10 10 10 10 10 10 9 9 9 10 10 11 11 12 12 13 13 13 14 14 14 14 14 15 15 16 16 16 16 15 14 14 11 8 5 4 4 5 8 6 2 1 1 5 12 19 22 19 12 8 7 8 10 13 15 16 16 17 17 18 20 21 21 22 23 24 25 26 25 25 24 24 24 24 24 25 25 26 26 26 27 27 27 28 28 28 27 27 25 24 23 21 20 20 19 19 19 20
9 9 9 10 10 10 10 10 10 10 10 9 9 10 10 11 12 12 12 12 13 13 13 13 14 14 13 13 14 14 15 15 14 14 14 16 15 11 7 4 2 3 3 3 3 3 3 5 11 19 23 21 14 9 7 8 10 12 14 15 15 16 17 18 19 20 21 22 23 24 25 26 25 25 24 23 23 24 24 24 25 25 26 26 26 27 27 28 28 28 28 28 27 26 24 23 21 20 20 20 20 20 20
9 9 10 10 10 10 10 10 10 10 10 10 10 11 11 12 12 12 12 12 13 13 13 13 13 13 14 14 15 14 14 14 13 12 13 15 14 10 4 2 1 1 1 1 2 3 3 5 11 19 21 14 9 8 8 10 12 13 14 14 15 17 18 19 20 20 21 22 24 25 26 26 25 24 23 23 23 24 25 25 25 25 26 26 26 27 27 28 28 28 28 27 26 25 24 23 21 20 20 20 20 20 20
9 10 10 10 10 10 11 10 11 11 11 10 10 11 11 12 12 12 12 13 12 12 13 13 12 13 14 15 14 14 14 13 12 11 12 13 14 11 3 2 2 2 1 2 1 1 3 6 13 17 15 9 8 10 11 12 12 13 14 15 16 18 19 20 20 21 22 24 25 26 26 25 24 23 23 23 24 25 25 25 26 26 26 26 27 27 28 28 28 28 27 26 25 24 23 23 22 21 20 20 20 20 20
10 10 10 11 11 11 10 10 10 11 11 10 11 11 11 12 12 12 12 12 12 12 12 12 12 12 13 13 13 13 13 13 12 11 10 11 12 12 9 4 2 3 3 3 2 1 2 9 8 5 7 9 11 12 13 12 12 13 14 16 18 19 19 20 21 22 24 26 26 26 25 24 23 23 24 24 25 25 26 26 26 26 27 27 27 28 28 28 28 27 26 25 24 24 23 23 22 21 20 20 20 20 20
10 10 10 10 10 10 10 10 10 10 10 10 10 11 11 11 11 11 11 11 12 12 12 12 12 12 12 12 12 12 13 14 13 11 9 9 10 10 9 8 4 1 1 1 2 3 6 11 7 4 8 13 13 12 12 12 13 14 15 17 18 19 20 21 22 24 26 27 26 25 24 23 23 24 24 25 26 26 26 26 27 27 27 28 28 28 28 28 27 26 25 25 24 24 23 23 22 21 20 20 20 20 20
10 10 10 9 9 9 9 9 9 10 10 10 10 9 9 9 10 11 11 11 12 12 11 11 11 12 12 12 12 12 13 14 14 13 10 9 9 10 8 7 5 3 2 2 3 5 5 4 2 3 7 11 13 12 10 12 14 16 17 18 18 19 20 22 24 25 26 26 25 24 23 23 23 24 25 26 26 27 27 27 28 28 28 28 28 28 28 27 26 25 24 24 24 24 23 22 21 20 20 20 20 20 20
9 8 8 8 8 8 9 9 9 9 9 9 9 8 9 9 10 10 10 11 11 11 11 11 11 12 12 12 12 12 13 13 13 13 12 9 9 10 9 7 6 5 4 5 7 7 4 2 2 3 4 7 12 15 15 13 14 16 18 18 19 19 21 23 25 25 25 24 23 22 23 24 24 25 25 26 27 27 28 28 29 28 28 28 28 27 27 26 25 24 24 23 23 23 23 22 21 20 20 20 20 20 20
7 7 7 7 7 7 8 8 8 8 8 8 8 8 9 9 9 9 9 9 10 10 11 11 11 11 11 12 12 12 12 12 12 13 12 8 9 10 9 8 7 6 5 6 7 8 7 4 3 2 2 4 7 11 15 16 16 16 17 18 19 21 23 24 24 23 22 22 22 22 24 25 25 25 25 26 27 28 29 29 29 29 28 28 27 27 26 25 24 24 23 23 23 23 22 22 20 20 20 20 20 20 20
6 6 6 6 6 7 7 7 7 7 7 7 7 8 8 8 8 8 8 9 9 9 10 11 11 11 11 11 12 12 12 11 12 13 12 10 9 9 10 9 7 6 5 5 6 7 8 8 8 6 3 2 4 7 10 14 17 19 19 19 20 22 23 23 22 21 20 21 22 23 24 25 25 25 26 27 28 29 29 29 29 28 27 27 26 26 25 24 24 23 23 23 23 22 22 21 20 19 19 20 20 21 21
Wind_Direction
204 190 187 202 217 227 247 291 315 328 347 357 359 352 333 330 332 334 335 329 332 339 346 349 350 349 347 345 341 335 331 325 323 323 323 321 318 315 314 312 310 308 307 304 307 312 313 308 305 303 304 309 313 317 322 327 330 332 332 331 329 325 320 314 304 294 285 280 278 278 279 280 281 282 283 283 282 280 276 272 271 271 272 271 271 271 272 273 273 275 275 275 278 282 284 282 279 275 272 271 270 270 269
221 210 204 212 225 242 283 344 4 359 345 343 339 328 312 318 321 323 325 322 322 326 333 337 340 341 343 339 334 329 325 322 320 320 321 321 321 319 317 314 312 311 309 306 305 306 305 304 305 306 309 312 315 319 323 327 329 332 333 334 334 331 327 320 309 298 291 284 280 279 278 277 277 278 278 278 278 278 277 277 275 273 271 269 267 267 268 269 269 270 270 273 277 280 282 283 283 282 280 276 272 269 269
219 214 229 245 259 283 328 359 7 351 323 329 329 320 312 317 320 320 322 324 321 320 323 328 329 330 331 329 326 323 320 319 318 318 318 320 320 319 317 315 313 312 310 308 304 301 299 301 304 307 310 313 316 320 324 326 329 331 333 335 337 336 333 326 315 304 297 291 286 282 279 277 275 274 275 275 275 277 280 281 281 281 279 273 267 264 263 264 266 268 270 274 278 279 280 280 281 282 282 280 277 273 269
197 206 268 285 297 320 344 350 345 333 319 318 319 319 320 320 319 319 323 326 323 320 319 321 322 321 321 319 318 317 316 316 317 317 316 317 316 316 315 314 313 310 308 306 304 302 302 303 306 309 312 316 321 325 328 330 331 333 335 337 339 339 336 332 325 316 306 300 291 285 282 279 276 274 273 273 274 276 278 281 284 287 287 280 273 266 261 261 263 267 271 275 278 279 278 277 277 278 278 279 278 276 272
161 201 259 280 297 316 335 333 329 325 326 323 320 318 316 315 316 320 325 328 325 321 318 317 317 317 315 314 314 315 315 316 316 317 317 317 316 314 313 313 311 308 305 305 305 307 309 311 313 316 319 325 330 335 338 339 339 341 343 344 344 344 342 340 338 330 314 307 302 297 292 287 281 276 274 273 273 274 275 278 282 286 289 287 280 273 267 264 263 265 268 271 273 273 274 273 273 273 274 275 277 277 276
182 220 249 267 287 310 318 316 319 325 328 328 324 320 320 320 322 324 327 327 322 318 316 316 316 316 315 314 313 314 315 316 317 318 321 320 319 318 316 313 310 308 307 309 312 315 318 321 324 328 332 336 340 343 345 345 346 347 349 350 350 350 348 348 347 341 325 316 315 314 309 304 296 286 278 274 274 274 274 275 277 280 285 287 286 281 276 273 271 269 268 268 269 270 272 273 273 273 273 273 273 275 276
218 232 244 258 273 287 297 308 317 324 327 331 332 328 323 325 326 326 322 318 315 315 314 314 315 316 315 315 315 315 317 320 321 323 327 325 323 321 320 317 316 316 318 321 324 326 327 329 334 339 342 344 345 345 347 347 348 350 351 352 353 352 352 351 350 345 335 322 318 316 310 306 303 296 286 280 279 277 273 274 274 275 277 280 281 282 280 277 275 273 271 271 271 273 274 276 276 276 275 273 271 271 272
238 249 256 263 270 280 295 310 320 323 324 327 327 324 321 324 324 320 316 314 314 315 316 317 318 319 318 320 321 323 326 328 329 331 333 335 334 333 333 332 331 333 334 336 336 336 335 334 337 342 344 344 344 344 346 347 349 350 352 353 353 352 351 351 349 344 333 322 316 311 304 298 294 291 290 287 286 284 279 279 277 274 272 272 273 274 274 274 272 271 272 273 275 277 278 278 277 277 277 276 274 272 270
262 274 285 289 289 294 306 314 318 317 315 315 315 317 320 323 321 319 318 319 320 321 323 325 327 330 332 337 342 345 347 346 345 344 343 342 343 344 344 344 345 345 346 345 343 341 337 334 335 338 340 339 340 341 343 345 348 349 350 351 351 350 350 349 346 339 326 318 313 307 302 300 297 294 291 288 286 285 286 285 282 280 278 277 276 275 273 274 275 276 277 278 279 281 281 280 279 278 278 277 276 274 272
273 284 295 302 301 303 308 312 317 318 315 317 319 321 324 326 327 327 329 331 332 333 335 339 343 348 354 358 360 360 358 355 353 353 352 350 351 352 351 351 351 351 349 347 344 340 336 333 332 333 334 334 335 337 339 342 344 346 347 348 348 347 346 347 343 335 324 318 314 310 307 306 305 303 299 294 292 289 286 283 282 282 282 283 282 280 277 275 276 278 278 278 278 278 277 278 279 279 277 277 276 273 271
276 283 292 299 303 307 312 316 321 325 328 333 335 334 335 338 340 341 342 343 345 348 352 356 1 5 6 6 5 3 1 360 358 357 357 357 357 357 356 354 353 350 347 343 339 336 333 331 330 330 330 330 330 332 334 336 339 341 342 343 343 343 343 344 343 338 327 321 317 315 311 307 304 302 298 295 293 290 285 279 275 273 271 270 270 271 272 272 271 270 269 271 272 271 270 272 273 273 272 273 274 275 275
280 288 297 304 311 318 322 325 328 332 337 342 344 346 348 351 352 352 352 353 355 360 4 9 11 11 10 9 7 5 4 3 2 1 1 1 360 358 356 353 349 346 342 337 334 332 331 330 329 329 327 327 328 328 330 331 333 335 336 337 337 338 340 344 344 340 332 324 322 321 316 310 304 298 293 290 286 285 282 277 273 270 267 263 262 263 265 268 268 268 268 269 272 273 272 272 272 269 267 266 269 275 280
286 297 308 317 324 330 333 336 339 343 345 348 351 355 357 357 356 356 356 359 2 8 12 14 14 14 12 10 8 6 5 4 4 4 3 1 358 355 352 348 344 340 336 333 331 331 331 331 330 329 328 328 328 329 330 330 331 332 333 334 335 337 340 340 340 336 331 325 323 323 319 315 308 302 297 296 294 292 291 291 291 291 288 283 277 271 267 266 264 263 265 269 273 273 273 277 277 275 272 269 272 278 282
296 308 317 327 334 341 346 351 353 354 355 357 360 1 1 360 359 358 359 2 7 12 16 17 16 13 10 7 5 3 3 4 4 3 0 357 353 350 346 343 339 336 333 332 333 334 334 335 335 334 335 334 334 334 334 334 334 334 335 336 338 340 341 336 333 330 325 322 320 317 315 312 308 305 303 305 307 308 308 309 310 311 308 307 303 299 292 286 280 274 271 274 274 272 273 278 283 285 287 288 290 290 290
302 313 322 331 341 349 358 2 2 0 360 0 2 2 2 0 360 1 3 8 13 17 18 15 11 6 1 358 356 357 359 1 1 360 356 351 348 345 343 340 337 335 335 336 338 340 341 342 344 343 343 343 342 340 340 339 338 337 337 338 340 342 342 334 330 325 318 316 314 312 311 307 305 304 305 307 309 310 312 313 313 312 310 312 313 313 313 311 309 306 303 300 296 293 293 293 294 296 298 300 300 299 299
305 315 324 337 349 0 8 9 5 359 358 359 0 1 2 2 4 8 12 16 18 17 13 6 359 354 351 350 350 352 355 358 359 356 350 346 343 342 342 341 340 340 341 343 345 346 348 348 348 348 347 346 344 343 342 341 339 338 337 337 340 342 341 334 327 320 314 311 309 308 308 306 306 305 305 306 307 308 309 312 313 313 312 313 312 311 311 314 315 315 314 313 312 312 311 308 307 304 300 301 302 301 300
312 324 337 351 7 16 17 11 5 359 357 359 1 4 6 10 14 19 21 21 17 11 2 354 349 347 346 347 348 350 353 355 353 350 344 341 340 340 341 342 342 343 344 345 346 347 347 347 347 346 346 345 344 343 342 341 339 337 337 336 338 341 342 334 326 320 314 310 309 307 306 305 306 306 305 305 305 305 307 309 311 312 312 311 310 309 307 306 307 307 306 306 306 306 307 308 308 306 298 298 298 297 296
334 348 3 16 24 26 21 11 5 0 0 2 6 10 16 21 24 26 24 17 8 358 351 346 344 344 345 345 346 347 348 348 346 342 338 336 336 337 338 339 339 340 340 342 344 344 344 344 343 344 344 344 343 342 342 340 339 338 338 337 338 340 342 338 333 327 320 316 314 314 314 315 316 316 315 314 313 312 310 308 307 306 306 303 303 304 303 300 299 298 297 296 297 297 298 298 298 296 291 292 293 293 293
13 17 22 29 30 26 16 7 2 2 2 4 10 18 24 28 28 25 17 7 358 350 346 343 342 341 340 341 341 342 342 340 338 335 333 332 333 336 337 337 337 337 339 340 341 341 341 341 341 342 344 345 344 344 343 341 340 340 341 340 339 339 342 345 345 340 334 328 325 325 326 327 328 328 327 326 325 323 321 317 313 308 302 299 296 295 295 295 294 294 293 292 293 294 293 291 290 288 286 287 288 289 291
31 29 28 26 21 12 2 356 354 353 354 355 7 22 31 32 27 18 8 360 353 348 345 341 339 337 335 335 335 335 334 332 330 328 327 329 333 337 340 341 341 341 342 343 342 341 341 341 343 345 347 348 349 348 347 345 345 345 345 344 342 341 343 349 352 352 347 341 337 335 334 334 333 332 330 329 327 325 323 321 319 316 311 306 300 294 289 287 288 289 289 290 291 292 291 289 288 287 286 288 288 289 291
33 22 14 5 355 347 339 336 335 334 335 335 352 22 34 30 21 9 358 353 350 347 343 339 335 332 329 328 328 328 327 326 324 324 326 331 336 341 344 346 346 348 350 349 348 347 347 347 349 351 353 354 354 354 353 353 353 352 349 347 345 345 346 352 356 358 355 351 347 343 339 336 334 333 331 329 326 322 317 315 314 314 314 313 309 303 294 287 283 283 286 288 289 289 290 290 289 287 286 286 286 288 290
16 358 345 335 329 324 321 319 318 317 317 317 329 17 32 27 11 351 338 338 342 344 340 336 331 326 322 320 321 323 325 327 329 332 336 340 344 346 347 348 350 353 356 355 354 352 352 351 352 354 355 356 356 355 355 356 355 353 349 348 347 348 349 352 357 1 1 359 356 351 346 343 342 342 340 338 333 327 321 316 313 312 311 312 312 310 304 295 289 287 289 289 288 287 290 291 292 293 293 286 282 282 284
336 324 320 317 316 316 316 316 314 314 313 315 317 319 292 330 311 307 308 313 326 335 334 329 324 319 317 315 317 323 332 340 348 354 356 355 355 353 351 350 351 353 354 353 351 351 350 349 349 351 352 353 353 352 352 352 352 349 346 346 346 347 348 351 358 5 9 10 8 5 2 355 354 355 354 352 348 341 334 326 320 315 313 314 317 317 313 304 298 296 296 300 303 300 291 290 295 302 305 300 290 283 283
311 308 309 313 319 322 323 324 323 321 322 316 305 287 258 260 284 300 307 306 311 320 325 323 318 315 318 318 324 337 351 1 5 6 5 3 0 357 355 353 352 352 352 350 348 347 346 345 345 346 348 349 350 350 349 349 349 347 345 345 345 346 349 353 2 13 18 20 19 18 15 8 5 5 4 2 359 355 349 340 331 324 321 322 327 332 331 323 317 315 319 332 338 330 314 308 308 312 319 327 325 313 307
300 303 310 322 329 331 331 330 331 330 330 315 295 284 275 280 298 313 318 314 309 312 321 323 317 314 328 343 351 359 6 9 8 5 1 0 360 358 354 352 351 351 350 349 347 346 344 344 344 344 346 348 349 349 349 349 349 348 347 347 347 348 352 358 10 22 27 27 26 25 22 17 13 10 5 3 2 2 360 355 349 346 345 344 345 349 354 350 346 344 347 353 355 354 348 342 335 329 328 335 338 338 340
296 306 332 342 341 336 329 327 328 328 320 296 277 271 274 287 308 319 325 321 314 319 335 337 334 338 359 4 3 2 4 3 2 360 357 355 355 353 351 349 349 349 348 348 347 346 346 346 346 346 348 349 350 351 351 352 353 354 353 352 354 356 0 7 21 33 34 30 27 26 24 21 17 9 359 359 2 4 4 0 2 8 10 7 8 12 14 12 9 7 5 7 8 7 5 1 356 348 339 342 348 358 5
275 351 34 19 357 339 329 322 323 328 324 283 254 259 286 313 325 333 339 340 347 356 357 351 350 0 3 356 356 357 357 356 354 352 349 348 348 348 348 347 347 347 347 347 348 348 349 350 350 351 352 353 355 357 358 2 5 6 6 7 9 14 19 24 36 44 40 31 28 25 23 20 18 14 8 1 356 359 7 3 6 12 14 15 19 21 21 20 18 16 16 17 17 16 13 8 4 358 353 351 357 7 13
139 111 88 42 354 337 335 8 34 41 41 1 303 291 320 343 351 355 3 11 5 353 343 342 351 358 355 350 352 354 353 352 350 347 346 346 346 346 347 347 347 348 348 349 351 352 354 355 356 357 358 0 3 7 13 19 23 24 26 29 33 40 46 51 59 59 47 35 29 26 23 22 20 19 15 3 351 352 6 11 12 12 11 13 15 17 18 16 15 14 15 16 18 18 15 7 360 355 354 356 360 4 7
136 120 116 99 33 30 118 111 92 76 58 20 1 1 13 11 6 3 359 355 341 327 322 331 344 349 350 349 347 347 349 349 348 347 346 346 347 347 348 349 350 351 351 352 355 358 360 2 4 5 7 12 17 24 32 36 37 38 39 42 47 52 57 62 67 65 55 41 33 28 25 23 21 21 22 23 15 8 12 7 9 11 9 5 7 10 11 10 9 9 10 12 14 13 8 0 352 346 346 350 356 359 356
134 127 129 126 163 163 142 132 125 116 102 95 103 114 119 91 13 354 341 338 331 324 327 340 345 345 344 343 342 343 345 345 346 346 346 348 349 349 349 352 353 355 357 360 2 4 7 10 12 14 17 23 29 36 42 42 39 37 37 37 40 44 48 52 52 52 50 43 36 30 26 24 23 24 26 26 27 26 22 16 9 5 5 6 7 6 4 2 1 1 2 3 3 2 358 354 349 346 344 347 350 350 345
128 126 128 136 148 147 134 129 128 126 122 125 126 120 112 106 75 21 352 345 342 345 349 350 348 346 343 341 342 343 343 343 343 344 345 347 349 351 353 356 358 360 3 6 8 10 14 17 19 20 23 28 33 37 39 36 32 29 27 26 26 27 30 32 33 33 35 34 32 28 26 25 24 24 26 25 23 21 19 13 5 360 1 5 4 1 358 357 356 355 354 353 351 349 348 346 344 343 342 343 344 342 338
128 122 119 126 136 137 131 127 121 114 110 108 99 86 74 62 45 26 7 358 352 351 351 351 349 347 345 344 344 344 343 342 342 343 344 346 350 354 357 360 1 3 6 8 10 14 18 22 22 22 24 27 29 31 31 28 25 22 20 18 18 18 18 19 19 20 21 22 23 24 24 23 23 23 23 23 21 17 12 10 8 5 1 2 360 356 354 352 348 345 345 344 342 341 340 339 338 337 337 338 338 337 334
136 123 121 130 138 140 134 125 111 99 87 75 62 53 44 36 26 18 11 5 360 357 354 352 351 350 348 349 348 347 345 344 344 345 346 348 352 357 360 1 2 3 4 7 9 13 19 21 22 22 23 24 25 26 25 22 19 17 17 16 16 16 16 15 14 15 15 16 17 17 18 18 18 18 19 20 18 14 10 7 5 4 3 359 355 352 350 347 344 341 340 338 337 336 336 335 335 335 336 336 335 333 330
149 146 158 157 156 150 139 125 110 93 72 54 43 36 33 29 20 12 8 4 1 358 356 356 355 353 352 352 351 349 349 349 350 351 352 353 357 359 360 360 360 1 2 4 8 12 17 19 19 18 19 21 22 23 21 18 17 17 16 16 16 16 17 15 14 13 12 12 11 11 11 12 13 13 15 16 14 10 5 4 3 0 358 355 352 349 347 345 344 342 339 337 336 335 335 334 335 336 336 334 332 330 328
159 171 180 171 159 147 136 123 108 93 75 54 41 36 29 25 17 10 5 4 2 1 0 359 358 357 355 354 352 352 355 358 358 358 358 359 360 360 359 358 358 358 358 1 5 11 15 15 14 15 16 17 20 21 19 17 17 18 18 18 17 17 17 15 13 11 10 8 6 5 5 6 7 8 10 11 10 7 5 3 0 357 354 351 350 348 346 344 342 341 339 338 337 336 335 334 334 333 333 331 329 328 327
178 183 182 172 160 144 128 112 100 93 86 71 51 37 24 16 10 6 4 3 2 3 4 1 0 360 358 356 356 359 2 2 1 360 360 1 0 359 358 357 356 355 355 357 2 8 11 10 9 11 12 17 21 21 18 17 18 19 19 18 17 16 15 13 11 9 7 4 2 1 0 1 2 3 5 5 4 2 2 1 358 354 351 350 348 346 344 343 342 341 339 338 336 335 334 333 332 332 330 329 329 328 326
186 183 176 166 152 135 112 94 85 81 77 61 44 27 15 8 4 2 1 360 3 7 7 6 6 6 6 5 6 7 6 3 1 0 0 0 359 357 356 355 354 352 351 353 357 3 6 6 6 8 12 20 23 19 16 16 17 18 18 17 15 13 12 10 8 6 3 1 359 358 357 357 358 359 360 1 0 359 356 355 353 351 349 349 348 347 345 344 342 340 339 337 335 334 333 332 332 331 330 329 328 326 324
178 171 161 149 135 116 95 86 84 77 61 46 30 16 10 6 4 3 5 8 13 15 13 15 15 15 13 14 14 12 10 7 5 3 2 359 357 356 355 354 352 350 348 349 352 358 3 3 3 7 13 18 17 13 12 12 14 15 15 13 12 10 9 7 5 2 360 357 356 355 355 354 354 355 356 357 356 354 352 349 348 348 348 348 347 347 345 343 341 339 338 336 334 333 332 332 331 330 328 327 326 324 322
160 150 141 127 112 99 99 111 99 77 53 37 25 17 11 10 10 11 14 18 21 21 19 19 16 15 16 16 15 13 11 9 8 6 4 1 358 356 355 352 350 348 346 345 347 353 358 358 359 2 8 10 9 6 5 7 9 10 10 9 8 7 5 4 1 359 356 354 353 352 352 352 352 352 352 353 352 350 348 346 346 346 347 347 346 345 344 343 341 339 338 336 334 333 332 331 329 328 327 326 324 322 321
132 124 113 102 98 110 129 116 90 66 44 33 28 23 18 17 20 23 24 26 25 23 21 18 14 13 14 13 12 10 10 9 8 6 4 2 360 357 354 351 349 346 344 342 343 347 351 352 354 356 359 2 1 357 357 1 4 6 6 5 4 3 2 0 358 356 353 352 350 349 349 349 348 348 348 348 347 346 344 343 343 344 345 345 345 344 343 343 341 340 337 336 334 333 331 330 328 327 326 325 323 321 320
102 95 91 100 117 125 114 95 74 52 38 32 31 29 26 27 31 34 32 30 28 26 23 19 16 15 14 11 9 8 8 7 6 5 3 1 359 356 353 350 347 346 343 342 341 344 347 349 349 351 353 355 352 347 349 354 358 1 1 1 1 360 359 357 355 352 350 349 347 347 346 346 345 345 344 344 343 342 341 340 340 341 342 343 343 342 341 341 340 339 337 335 334 332 330 329 328 326 325 324 322 320 319
92 95 107 123 119 109 93 77 57 40 35 34 36 35 35 38 39 39 36 31 30 29 27 23 20 18 15 12 9 8 6 5 4 4 1 359 357 355 352 349 347 345 344 342 342 343 345 346 346 346 347 346 342 339 342 349 353 356 357 357 356 356 355 353 351 349 347 346 345 344 343 342 342 342 341 340 340 339 338 338 338 339 340 341 341 341 340 339 339 339 337 335 334 332 331 329 328 327 325 323 321 320 318
125 122 118 113 104 93 80 68 55 42 37 41 42 42 44 46 46 43 39 33 31 31 30 27 23 20 16 14 12 9 7 5 3 2 0 357 355 353 351 349 347 346 345 344 343 343 343 343 343 342 341 338 333 331 338 345 350 352 352 352 351 351 351 349 347 345 344 343 342 341 340 340 339 339 338 337 337 336 336 336 337 338 339 339 339 339 338 338 337 337 337 336 334 333 332 330 328 327 324 323 321 319 317
114 109 104 98 92 85 77 69 58 49 44 46 47 48 50 50 49 45 41 35 32 33 34 31 26 22 18 17 15 13 10 7 3 0 358 355 353 352 351 350 349 347 346 345 343 341 340 339 339 338 336 332 328 330 338 344 347 348 348 346 345 346 347 345 344 342 341 340 339 339 338 337 337 336 336 335 334 334 334 334 335 336 337 337 337 337 337 336 335 334 334 334 334 333 332 330 328 327 324 322 321 319 317
102 96 92 89 85 79 72 64 56 49 47 48 50 52 53 52 48 44 40 37 34 34 35 33 28 25 22 20 18 15 11 7 2 359 356 354 352 351 352 352 351 348 346 344 342 338 336 334 334 333 330 326 326 332 339 343 344 343 340 338 339 340 341 341 339 338 337 337 336 336 335 335 334 334 334 333 332 332 332 333 333 334 334 335 334 335 335 334 333 332 331 332 332 332 331 330 328 326 324 322 321 319 317
93 90 87 82 76 70 63 57 50 46 45 46 48 50 51 49 45 41 38 35 33 32 33 32 29 26 24 21 18 14 10 5 1 357 355 353 351 351 353 353 353 349 346 343 339 335 331 330 329 327 323 321 326 333 338 340 338 334 331 330 332 335 336 336 335 334 334 334 334 333 332 332 332 332 332 331 331 330 330 331 331 331 332 332 332 332 332 331 331 330 330 331 331 330 330 328 326 325 323 322 320 319 317
86 83 80 74 66 60 55 50 44 41 40 40 42 44 46 44 42 39 36 33 31 30 29 28 26 24 22 19 16 12 8 4 0 357 354 351 351 352 353 353 353 351 347 342 337 331 327 326 325 322 319 320 327 332 335 333 330 326 324 324 327 329 331 331 331 331 331 331 330 330 329 329 329 330 330 329 329 329 329 329 329 329 329 329 329 329 329 329 328 329 329 329 329 329 328 327 326 324 323 322 321 319 318
78 75 71 66 60 55 51 46 41 38 36 37 40 43 45 43 41 38 35 32 30 29 27 24 22 20 17 15 14 11 7 4 1 358 354 351 351 352 352 351 351 351 349 344 335 327 323 323 321 318 318 323 328 330 330 326 322 320 319 321 323 325 326 327 328 328 328 328 327 327 327 327 328 328 328 328 328 327 327 327 327 327 327 327 327 327 327 326 327 327 328 328 328 327 327 326 326 325 323 322 321 320 318
74 71 67 63 57 53 50 44 40 37 37 39 43 47 46 45 43 40 36 32 29 27 25 23 21 19 17 17 15 11 7 4 0 357 356 357 354 349 348 348 347 346 347 344 335 323 319 318 317 318 324 328 328 326 323 319 316 315 315 317 319 321 323 325 326 325 325 325 325 325 325 326 326 327 327 327 326 326 326 326 326 326 325 325 325 325 325 325 325 325 326 327 326 326 325 325 325 324 323 321 320 319 318
71 69 66 61 56 52 49 45 42 40 40 43 48 50 48 46 43 39 34 30 26 24 23 23 23 21 20 22 20 15 9 5 360 358 1 5 360 347 341 339 338 339 342 342 335 320 312 313 317 326 331 328 325 322 319 315 312 311 312 314 317 319 322 323 324 324 323 323 323 323 324 325 325 326 326 325 325 325 325 325 324 324 324 324 323 323 323 323 323 324 325 325 325 324 324 324 323 323 322 320 319 318 317
69 65 62 59 55 53 51 48 46 44 45 48 50 50 47 42 37 32 27 26 24 23 23 23 23 22 21 23 22 18 13 7 4 6 11 5 355 340 311 308 317 331 340 342 338 321 297 276 322 329 326 324 322 320 318 313 309 309 312 314 317 319 321 322 323 322 322 321 321 322 323 324 324 325 324 324 324 324 323 323 323 322 322 322 322 322 322 321 321 322 322 323 323 322 322 322 322 322 321 320 319 318 317
67 62 59 56 56 54 53 51 50 50 48 46 47 45 40 35 32 29 26 26 25 24 24 23 22 20 18 19 20 19 16 13 12 15 20 5 351 339 322 318 329 342 346 339 343 19 62 1 325 325 323 323 323 324 321 313 311 312 314 316 318 320 321 322 321 321 320 320 320 321 321 322 323 323 323 323 323 322 322 322 321 320 320 320 319 319 319 319 319 319 320 320 321 321 321 322 323 322 320 319 318 318 317
64 59 56 55 56 56 54 53 53 51 46 40 39 39 36 32 32 31 29 28 27 26 25 22 19 17 14 12 14 17 18 18 19 20 20 14 3 350 351 10 11 342 335 344 336 340 11 5 339 327 323 323 324 325 324 319 316 315 315 317 318 320 321 321 321 320 319 319 319 320 320 321 322 322 322 321 321 321 320 320 319 318 318 317 317 316 316 316 317 317 318 319 319 320 321 322 323 322 319 318 317 317 316
62 58 55 55 55 55 54 53 52 49 43 36 34 36 36 35 35 34 32 30 28 26 24 21 17 14 15 12 10 12 16 19 22 24 26 21 17 11 358 357 319 269 190 97 21 336 323 346 331 322 319 321 325 324 324 321 318 316 316 318 319 320 321 321 320 319 319 318 318 319 320 320 321 321 321 320 320 319 319 318 317 317 316 315 315 314 314 314 315 316 316 317 318 320 321 322 322 320 318 317 316 316 315
61 56 54 53 53 53 52 50 49 47 43 37 34 35 38 40 39 37 35 33 30 26 23 19 16 15 17 17 12 9 10 16 21 26 30 28 28 28 19 315 309 327 1 55 57 329 307 328 324 319 315 325 333 328 322 319 317 316 317 319 320 321 322 321 320 319 318 317 317 318 319 320 320 320 319 319 318 317 317 316 316 315 314 313 313 312 312 313 313 314 315 316 318 319 320 321 321 318 316 315 315 314 314
59 56 53 51 50 49 48 47 47 46 44 39 37 38 43 44 43 41 37 34 30 25 22 19 17 16 16 19 16 11 7 11 19 26 30 31 32 33 31 26 8 352 348 351 333 277 284 329 325 308 315 331 332 324 317 316 317 317 318 320 321 322 322 321 319 318 317 316 317 318 319 319 319 318 317 317 316 315 315 315 314 314 313 312 311 311 311 312 313 314 315 316 317 318 318 319 319 317 314 313 313 313 312
56 55 52 49 46 45 44 44 45 45 44 41 41 43 47 47 45 41 37 33 30 26 23 19 18 17 15 15 16 14 11 11 15 22 29 30 30 32 37 36 44 102 312 301 293 301 315 332 334 313 311 319 319 316 315 317 317 318 319 320 321 321 320 319 317 316 316 316 317 318 319 318 317 316 315 314 314 313 313 313 313 312 312 311 310 310 310 311 312 314 315 315 316 316 317 317 316 314 312 311 311 311 310
53 52 50 47 43 41 40 40 41 44 45 44 44 45 47 45 43 40 36 33 31 27 22 19 19 19 17 14 14 17 19 19 16 16 23 26 26 28 34 33 31 16 301 275 289 306 315 341 351 313 311 316 316 316 319 319 319 319 319 320 320 320 319 317 316 315 315 316 317 317 317 316 315 314 313 312 312 312 312 312 311 311 310 310 310 310 310 312 312 313 314 314 314 314 314 314 313 311 309 309 309 308 308
52 50 48 45 41 38 37 38 39 43 46 46 45 44 44 44 41 39 36 34 32 28 23 22 21 20 18 15 15 19 25 25 21 16 15 17 20 23 27 23 15 2 342 321 319 323 325 328 319 315 323 321 319 319 320 319 318 319 318 319 319 319 318 316 315 315 315 316 317 316 315 314 313 313 312 311 311 311 310 310 310 310 309 309 310 310 311 311 312 312 312 312 312 312 312 312 311 309 307 306 306 306 306
53 50 49 46 42 39 38 37 39 42 44 44 43 42 43 44 43 40 37 35 32 28 25 24 22 20 18 16 16 20 26 27 25 22 18 12 12 16 21 18 14 8 351 338 333 331 325 309 297 312 334 318 316 317 317 317 318 318 317 317 318 318 317 315 314 314 315 316 316 315 313 312 312 312 311 310 310 309 309 309 308 308 309 309 310 310 311 311 311 311 311 311 310 310 310 310 308 306 305 304 304 304 304
58 54 52 49 45 41 39 39 40 41 42 42 41 42 44 45 43 38 35 33 30 27 24 23 21 20 18 16 17 20 23 24 25 24 22 16 7 6 12 12 11 6 356 345 338 331 323 314 314 319 315 294 300 307 309 314 318 320 318 318 318 318 315 314 315 315 315 315 314 313 312 312 311 311 310 309 309 308 307 307 307 308 308 309 310 310 310 310 310 310 310 310 309 309 309 308 306 303 303 302 302 302 302